#timestamp,LO_Frequency,Hit,StdDev 
1685840415.3,286047004.3,N
1685840435.2,286047001.4,N
1685840455.0,286047005.4,Y
1685840455.9,286047005.4,P
1685840475.8,286047002.4,N
1685840495.6,286047002.8,N
1685840515.4,286047002.6,N
1685840535.3,286047004.0,Y
1685840555.1,286046998.5,P
1685840575.8,286047002.4,N
1685840595.7,286047004.3,N
1685840615.5,286047003.7,N
1685840635.4,286046999.8,N
1685840655.2,286047004.1,N
1685840675.0,286047005.3,N
1685840675.9,286047005.3,N
1685840695.8,286047009.2,Y
1685840715.6,286047006.1,P
1685840735.5,286047008.9,P
1685840755.3,286047007.5,P
1685840775.1,286047006.3,N
1685840795.9,286047006.2,Y
1685840815.7,286046998.5,P
1685840835.5,286046998.3,N
1685840855.4,286046998.7,N
1685840875.2,286046999.2,N
1685840895.1,286046999.2,N
1685840896.0,286046999.2,N
1685840915.8,286046997.0,N
1685840935.6,286046995.0,N
1685840955.5,286046995.0,N
1685840975.3,286046997.7,N
1685840995.1,286046996.3,N
1685841015.9,286046997.2,N
1685841035.7,286047001.2,N
1685841055.6,286047002.7,N
1685841075.4,286047000.0,N
1685841095.2,286047002.2,N
1685841115.1,286046999.9,N
1685841116.0,286046999.9,N
1685841135.8,286047001.2,N
1685841155.6,286047000.4,N
1685841175.5,286046998.2,N
1685841195.3,286047001.0,N
1685841215.2,286047002.0,N
1685841235.9,286047004.8,N
1685841255.7,286047006.5,N
1685841275.6,286047010.3,Y
1685841295.4,286047011.0,P
1685841315.2,286047013.3,N
1685841335.1,286047016.8,N
1685841336.0,286047016.8,N
1685841355.8,286047016.7,N
1685841375.7,286047017.8,N
1685841395.5,286047019.1,Y
1685841415.3,286047006.6,P
1685841435.2,286047008.8,N
1685841455.0,286047009.5,P
1685841455.9,286047009.5,Y
1685841475.8,286046998.2,P
1685841495.6,286047003.1,N
1685841515.4,286047003.7,N
1685841535.3,286047004.2,N
1685841555.1,286047001.8,N
1685841575.8,286047007.6,N
1685841595.7,286047010.5,Y
1685841615.5,286047006.0,P
1685841635.4,286047003.4,P
1685841655.2,286047007.6,P
1685841675.0,286047006.5,Y
1685841675.9,286047006.5,P
1685841695.8,286047006.1,P
1685841715.6,286047005.5,P
1685841735.5,286047007.3,Y
1685841755.3,286047002.8,P
1685841775.1,286047002.1,N
1685841795.9,286047005.5,P
1685841815.7,286047005.9,Y
1685841835.5,286047004.3,P
1685841855.4,286047001.6,P
1685841875.2,286046998.1,N
1685841895.1,286047004.8,N
1685841896.0,286047004.8,N
1685841915.8,286047006.0,N
1685841935.6,286047000.9,N
1685841955.5,286047000.0,N
1685841975.3,286047003.7,N
1685841995.1,286047002.9,N
1685842015.9,286047004.7,N
1685842035.7,286047005.5,N
1685842055.6,286047008.8,Y
1685842075.4,286047006.3,P
1685842095.2,286047003.1,N
1685842115.1,286047005.1,P
1685842116.0,286047005.1,Y
1685842135.8,286047000.0,P
1685842155.6,286047000.0,N
1685842175.5,286046999.1,N
1685842195.3,286046998.4,N
1685842215.2,286047000.6,N
1685842235.9,286046999.9,N
1685842255.7,286047001.8,N
1685842275.6,286047003.7,N
1685842295.4,286047002.9,N
1685842315.3,286047003.4,N
1685842335.1,286047003.0,N
1685842336.0,286047003.0,N
1685842355.8,286047006.2,Y
1685842375.7,286047003.2,P
1685842395.5,286047001.9,N
1685842415.4,286047001.6,N
1685842435.2,286047001.5,N
1685842455.0,286047004.1,Y
1685842455.9,286047004.1,P
1685842475.8,286047003.3,P
1685842495.6,286047000.1,N
1685842515.4,286047002.2,N
1685842535.3,286047001.5,N
1685842555.1,286047007.2,Y
1685842575.9,286047004.7,P
1685842595.7,286047005.4,P
1685842615.5,286047006.5,P
1685842635.4,286047006.7,Y
1685842655.2,286047003.8,P
1685842675.0,286047007.0,P
1685842675.9,286047007.0,P
1685842695.8,286047010.8,Y
1685842715.6,286047004.4,P
1685842735.5,286047002.0,P
1685842755.3,286047006.0,P
1685842775.1,286047006.0,Y
1685842795.9,286047001.9,P
1685842815.7,286047002.3,N
1685842835.6,286047001.7,N
1685842855.4,286047004.2,Y
1685842875.2,286046998.8,P
1685842895.1,286047001.9,N
1685842896.0,286047001.9,N
1685842915.8,286047002.9,N
1685842935.7,286047006.4,Y
1685842955.5,286047001.8,P
1685842975.3,286047004.4,P
1685842995.2,286047003.8,N
1685843015.9,286047004.6,Y
1685843035.7,286047003.6,P
1685843055.6,286047003.2,P
1685843075.4,286047002.6,P
1685843095.3,286046998.2,Y
1685843115.1,286046996.6,P
1685843116.0,286046996.6,N
1685843135.8,286046997.3,N
1685843155.7,286046996.0,N
1685843175.5,286046996.0,N
1685843195.3,286046999.6,N
1685843215.2,286046998.6,N
1685843235.0,286046999.4,N
1685843235.9,286046999.4,N
1685843255.8,286046999.6,N
1685843275.6,286046999.6,N
1685843295.4,286047002.2,N
1685843315.3,286047003.4,N
1685843335.1,286047003.5,N
1685843355.8,286047007.3,N
1685843375.7,286047009.8,Y
1685843395.5,286047012.1,P
1685843415.4,286047011.1,N
1685843435.2,286047011.9,N
1685843455.0,286047012.8,N
1685843455.9,286047012.8,N
1685843475.8,286047015.6,Y
1685843495.6,286047004.3,P
1685843515.4,286047009.2,P
1685843535.3,286047006.4,N
1685843555.1,286047007.5,Y
1685843575.9,286047000.5,P
1685843595.7,286046999.6,N
1685843615.5,286047002.5,N
1685843635.4,286046998.4,N
1685843655.2,286046997.4,N
1685843675.0,286046997.9,N
1685843675.9,286046997.9,N
1685843695.8,286046997.5,N
1685843715.6,286046999.0,N
1685843735.5,286047003.9,N
1685843755.3,286047006.2,N
1685843775.1,286047004.9,N
1685843795.9,286047006.9,N
1685843815.7,286047007.1,N
1685843835.5,286047006.2,N
1685843855.4,286047007.1,N
1685843875.2,286047007.3,N
1685843895.1,286047004.6,N
1685843896.0,286047004.6,N
1685843915.8,286047008.8,N
1685843935.6,286047007.3,N
1685843955.5,286047007.0,N
1685843975.3,286047008.7,N
1685843995.1,286047010.0,N
